Location: Unspecified
(0.0000°N, 0.0000°E)
Time: 18:29:44
(UTC+00:00)

SLDCOM 1 - Visible Passes

Search period start: 25 April 2019 00:00
Search period end: 05 May 2019 00:00
Orbit: 1237 x 11518 km, 63.3° (Epoch: 04 October)

Date Brightness Start Highest point End Pass type
(mag) Time Alt. Az. Time Alt. Az. Time Alt. Az.
25 Apr 9.0 04:18:45 10° NNW 05:10:04 72° ENE 05:24:19 10° SSE visible
25 Apr 9.3 17:54:13 10° SSW 18:10:24 75° WNW 19:09:26 10° NNE visible
26 Apr 9.0 04:12:34 10° NNW 05:03:53 71° ENE 05:18:08 10° SSE visible
26 Apr 9.4 17:48:02 10° SSW 18:04:14 75° WNW 19:03:15 10° NNE visible
27 Apr 9.0 04:06:23 10° NNW 04:57:43 71° ENE 05:11:58 10° SSE visible
27 Apr 9.4 17:41:52 10° SSW 17:58:03 75° WNW 18:57:04 10° NNE visible
28 Apr 9.0 04:00:12 10° NNW 04:51:33 71° ENE 05:05:47 10° SSE visible
28 Apr 9.4 17:35:41 10° SSW 17:51:52 75° WNW 18:50:53 10° NNE visible
29 Apr 8.9 03:54:01 10° NNW 04:45:21 71° ENE 04:59:36 10° SSE visible
29 Apr 9.4 17:29:30 10° SSW 17:45:41 75° WNW 18:44:42 10° NNE visible
30 Apr 8.9 03:47:50 10° NNW 04:39:11 71° ENE 04:53:26 10° SSE visible
30 Apr 9.4 17:23:20 10° SSW 17:39:31 75° WNW 18:38:31 10° NNE visible
01 May 8.9 03:41:39 10° NNW 04:33:00 71° ENE 04:47:15 10° SSE visible
01 May 9.5 17:17:09 10° SSW 17:33:20 75° WNW 18:32:19 10° NNE visible
02 May 8.9 03:35:28 10° NNW 04:26:49 71° ENE 04:41:04 10° SSE visible
02 May 9.5 17:10:58 10° SSW 17:27:09 75° WNW 18:26:09 10° NNE visible
03 May 8.9 03:29:17 10° NNW 04:20:38 71° ENE 04:34:53 10° SSE visible
03 May 9.5 17:04:48 10° SSW 17:20:59 75° WNW 18:19:58 10° NNE visible
04 May 8.9 03:23:06 10° NNW 04:14:28 71° ENE 04:28:43 10° SSE visible
04 May 9.5 16:58:37 10° SSW 17:14:48 75° WNW 18:13:47 10° NNE visible
